Location: Fort Wayne
(41.1310°N, 85.1290°W)
Time: 07:41:27
(UTC-04:00)

Meteor 2-9 Rocket - Visible Passes

Search period start: 18 September 2014 00:00
Search period end: 28 September 2014 00:00
Orbit: 792 x 896 km, 81.3° (Epoch: 03 September)

Date Brightness Start Highest point End Pass type
(mag) Time Alt. Az. Time Alt. Az. Time Alt. Az.
18 Sep 7.2 05:17:41 10° NNE 05:21:24 17° ENE 05:25:06 10° ESE visible
18 Sep 5.1 20:06:58 10° SSW 20:12:15 56° WNW 20:17:44 10° N visible
19 Sep 7.3 05:04:01 10° NNE 05:07:18 15° ENE 05:10:36 10° E visible
19 Sep 4.3 06:44:55 10° NNW 06:50:46 79° W 06:56:37 10° S visible
20 Sep 7.4 04:50:27 10° NE 04:53:13 13° ENE 04:55:59 10° E visible
20 Sep 4.3 06:30:55 10° N 06:36:48 88° W 06:42:39 10° S visible
21 Sep 7.4 04:37:02 10° NE 04:39:07 12° ENE 04:41:11 10° E visible
21 Sep 4.4 06:16:56 10° N 06:22:49 83° E 06:28:40 10° S visible
21 Sep 7.6 21:12:55 10° WNW 21:14:00 11° WNW 21:15:05 10° NW visible
22 Sep 7.5 04:24:09 10° NE 04:25:00 10° ENE 04:25:51 10° ENE visible
22 Sep 4.6 06:02:57 10° N 06:08:49 74° E 06:14:40 10° SSE visible
22 Sep 7.4 20:57:45 10° W 20:59:53 12° WNW 21:02:02 10° NW visible
23 Sep 4.7 05:48:59 10° N 05:54:50 66° ENE 06:00:38 10° SSE visible
23 Sep 7.3 20:42:59 10° W 20:45:46 14° WNW 20:48:36 10° NNW visible
24 Sep 4.9 05:35:02 10° N 05:40:49 58° ENE 05:46:34 10° SSE visible
24 Sep 7.2 20:28:23 10° W 20:31:40 16° WNW 20:35:00 10° NNW visible
25 Sep 5.1 05:21:05 10° N 05:26:49 52° ENE 05:32:29 10° SSE visible
25 Sep 7.1 20:13:53 10° WSW 20:17:34 18° WNW 20:21:20 10° NNW visible
26 Sep 5.3 05:07:10 10° N 05:12:48 46° ENE 05:18:22 10° SSE visible
26 Sep 5.3 06:50:37 10° NW 06:55:14 25° W 06:59:49 10° SW visible
26 Sep 7.0 19:59:28 10° WSW 20:03:29 20° WNW 20:07:36 10° NNW visible
27 Sep 5.5 04:53:15 10° N 04:58:46 41° ENE 05:04:14 10° SE visible
27 Sep 5.1 06:36:27 10° NNW 06:41:19 28° W 06:46:08 10° SW visible
